Hourly Weather Borovec

Today, 12 August, Wednesday

Time Temperature Precipitation Wind Pressure Humidity
00:00 +19°C° 0 mm 0 mps 711 mmHg 70%
01:00 +19°C° 0 mm 0 mps 711 mmHg 71%
02:00 +18°C° 0 mm 0 mps 711 mmHg 73%
03:00 +18°C° 0 mm 0 mps 711 mmHg 75%
04:00 +18°C° 0 mm 0 mps 711 mmHg 76%
05:00 +18°C° 0 mm 0 mps 711 mmHg 77%
06:00 +19°C° 0 mm 0 mps 711 mmHg 72%
07:00 +23°C° 0 mm 1 mps 712 mmHg 67%
08:00 +25°C° 0 mm 1 mps 712 mmHg 62%
09:00 +26°C° 0.1 mm 1 mps 712 mmHg 58%
10:00 +28°C° 0.1 mm 1 mps 712 mmHg 53%
11:00 +29°C° 0.1 mm 1 mps 712 mmHg 48%
12:00 +30°C° 0.3 mm 2 mps 712 mmHg 47%
13:00 +30°C° 0.3 mm 2 mps 712 mmHg 46%
14:00 +30°C° 0.3 mm 2 mps 712 mmHg 45%
15:00 +30°C° 0.3 mm 2 mps 711 mmHg 47%
16:00 +29°C° 0.3 mm 2 mps 711 mmHg 50%
17:00 +29°C° 0.3 mm 2 mps 711 mmHg 52%
18:00 +27°C° 0.3 mm 2 mps 711 mmHg 58%
19:00 +25°C° 0.3 mm 2 mps 711 mmHg 64%
20:00 +23°C° 0.3 mm 1 mps 711 mmHg 70%
21:00 +23°C° 0.5 mm 1 mps 711 mmHg 73%
22:00 +22°C° 0.5 mm 1 mps 711 mmHg 76%
23:00 +21°C° 0.5 mm 1 mps 711 mmHg 79%

Tomorrow, 13 August, Thursday

Time Temperature Precipitation Wind Pressure Humidity
00:00 +21°C° 0.1 mm 1 mps 712 mmHg 79%
01:00 +19°C° 0.1 mm 0 mps 712 mmHg 80%
02:00 +18°C° 0.1 mm 0 mps 712 mmHg 80%
03:00 +18°C° 0 mm 0 mps 712 mmHg 81%
04:00 +20°C° 0 mm 1 mps 711 mmHg 82%
05:00 +19°C° 0 mm 1 mps 711 mmHg 83%
06:00 +21°C° 0 mm 1 mps 712 mmHg 78%
07:00 +22°C° 0 mm 1 mps 712 mmHg 74%
08:00 +24°C° 0 mm 1 mps 713 mmHg 70%
09:00 +25°C° 0.3 mm 1 mps 713 mmHg 65%
10:00 +26°C° 0.3 mm 1 mps 713 mmHg 60%
11:00 +28°C° 0.3 mm 2 mps 713 mmHg 55%
12:00 +28°C° 0.1 mm 2 mps 713 mmHg 53%
13:00 +29°C° 0.1 mm 2 mps 713 mmHg 50%
14:00 +29°C° 0.1 mm 2 mps 712 mmHg 47%
15:00 +29°C° 0.1 mm 2 mps 712 mmHg 48%
16:00 +29°C° 0.1 mm 2 mps 712 mmHg 49%
17:00 +29°C° 0.1 mm 2 mps 712 mmHg 51%
18:00 +27°C° 0 mm 2 mps 712 mmHg 57%
19:00 +25°C° 0 mm 1 mps 711 mmHg 63%
20:00 +23°C° 0 mm 1 mps 711 mmHg 69%
21:00 +23°C° 0 mm 1 mps 711 mmHg 70%
22:00 +22°C° 0 mm 1 mps 711 mmHg 72%
23:00 +19°C° 0 mm 0 mps 711 mmHg 73%

Day after tomorrow, 14 August, Friday

Time Temperature Precipitation Wind Pressure Humidity
00:00 +19°C° 0 mm 0 mps 711 mmHg 75%
01:00 +20°C° 0 mm 1 mps 711 mmHg 77%
02:00 +20°C° 0 mm 1 mps 711 mmHg 79%
03:00 +20°C° 0 mm 1 mps 711 mmHg 81%
04:00 +19°C° 0 mm 1 mps 711 mmHg 84%
05:00 +19°C° 0 mm 1 mps 710 mmHg 86%
06:00 +20°C° 0 mm 1 mps 711 mmHg 81%
07:00 +22°C° 0 mm 1 mps 711 mmHg 76%
08:00 +23°C° 0 mm 1 mps 711 mmHg 72%
09:00 +25°C° 0 mm 1 mps 711 mmHg 63%
10:00 +28°C° 0 mm 1 mps 712 mmHg 55%
11:00 +28°C° 0 mm 0 mps 712 mmHg 47%
12:00 +30°C° 0 mm 1 mps 711 mmHg 43%
13:00 +31°C° 0 mm 1 mps 711 mmHg 38%
14:00 +32°C° 0 mm 1 mps 711 mmHg 34%
15:00 +31°C° 0 mm 1 mps 710 mmHg 36%
16:00 +31°C° 0 mm 2 mps 710 mmHg 38%
17:00 +30°C° 0 mm 2 mps 710 mmHg 40%
18:00 +28°C° 0 mm 1 mps 710 mmHg 47%
19:00 +26°C° 0 mm 1 mps 709 mmHg 54%
20:00 +24°C° 0 mm 1 mps 709 mmHg 62%
21:00 +23°C° 0 mm 1 mps 709 mmHg 63%
22:00 +23°C° 0 mm 1 mps 710 mmHg 65%
23:00 +22°C° 0 mm 1 mps 710 mmHg 66%

15 August, Saturday

Time Temperature Precipitation Wind Pressure Humidity
00:00 +22°C° 0 mm 1 mps 710 mmHg 67%
01:00 +21°C° 0 mm 1 mps 710 mmHg 68%
02:00 +20°C° 0 mm 1 mps 710 mmHg 69%
03:00 +20°C° 0.1 mm 1 mps 709 mmHg 70%
04:00 +19°C° 0.1 mm 1 mps 709 mmHg 71%
05:00 +19°C° 0.1 mm 1 mps 709 mmHg 72%
06:00 +20°C° 0.3 mm 1 mps 709 mmHg 70%
07:00 +21°C° 0.3 mm 1 mps 710 mmHg 69%
08:00 +22°C° 0.3 mm 1 mps 710 mmHg 68%
09:00 +24°C° 0.6 mm 1 mps 710 mmHg 63%
10:00 +26°C° 0.6 mm 1 mps 710 mmHg 59%
11:00 +28°C° 0.6 mm 1 mps 710 mmHg 54%
12:00 +28°C° 1 mm 1 mps 710 mmHg 51%
13:00 +29°C° 1 mm 1 mps 710 mmHg 49%
14:00 +30°C° 1 mm 2 mps 710 mmHg 46%
15:00 +29°C° 0.4 mm 2 mps 709 mmHg 49%
16:00 +28°C° 0.4 mm 2 mps 709 mmHg 53%
17:00 +27°C° 0.4 mm 2 mps 709 mmHg 56%
18:00 +26°C° 0.3 mm 1 mps 709 mmHg 63%
19:00 +24°C° 0.3 mm 1 mps 709 mmHg 69%
20:00 +22°C° 0.3 mm 1 mps 709 mmHg 76%
21:00 +22°C° 0.5 mm 1 mps 709 mmHg 77%
22:00 +21°C° 0.5 mm 1 mps 709 mmHg 79%
23:00 +21°C° 0.5 mm 1 mps 710 mmHg 80%

16 August, Sunday

Time Temperature Precipitation Wind Pressure Humidity
00:00 +20°C° 0.1 mm 1 mps 709 mmHg 80%
01:00 +19°C° 0.1 mm 1 mps 709 mmHg 80%
02:00 +19°C° 0.1 mm 1 mps 709 mmHg 79%
03:00 +18°C° 0 mm 1 mps 709 mmHg 80%
04:00 +18°C° 0 mm 1 mps 709 mmHg 81%
05:00 +16°C° 0 mm 1 mps 709 mmHg 82%
06:00 +19°C° 0 mm 1 mps 709 mmHg 78%
07:00 +20°C° 0 mm 1 mps 710 mmHg 74%
08:00 +21°C° 0 mm 1 mps 710 mmHg 71%
09:00 +23°C° 0 mm 2 mps 710 mmHg 64%
10:00 +25°C° 0 mm 2 mps 711 mmHg 57%
11:00 +27°C° 0 mm 2 mps 711 mmHg 51%
12:00 +27°C° 0.2 mm 2 mps 711 mmHg 49%
13:00 +28°C° 0.2 mm 2 mps 711 mmHg 46%
14:00 +29°C° 0.2 mm 2 mps 711 mmHg 44%
15:00 +29°C° 0.1 mm 2 mps 710 mmHg 46%
16:00 +28°C° 0.1 mm 2 mps 710 mmHg 47%
17:00 +28°C° 0.1 mm 2 mps 710 mmHg 49%
18:00 +26°C° 0.1 mm 2 mps 710 mmHg 54%
19:00 +24°C° 0.1 mm 2 mps 710 mmHg 59%
20:00 +23°C° 0.1 mm 1 mps 710 mmHg 64%
21:00 +21°C° 0 mm 2 mps 710 mmHg 65%
22:00 +20°C° 0 mm 2 mps 711 mmHg 66%
23:00 +20°C° 0 mm 2 mps 711 mmHg 68%

17 August, Monday

Time Temperature Precipitation Wind Pressure Humidity
00:00 +19°C° 0 mm 2 mps 711 mmHg 73%
01:00 +18°C° 0 mm 2 mps 711 mmHg 78%
02:00 +17°C° 0 mm 2 mps 711 mmHg 83%
03:00 +16°C° 0 mm 2 mps 711 mmHg 85%
04:00 +16°C° 0 mm 1 mps 711 mmHg 88%
05:00 +16°C° 0 mm 1 mps 711 mmHg 90%
06:00 +18°C° 0 mm 1 mps 711 mmHg 84%
07:00 +19°C° 0 mm 1 mps 712 mmHg 77%
08:00 +21°C° 0 mm 1 mps 712 mmHg 71%
09:00 +23°C° 0 mm 2 mps 712 mmHg 64%
10:00 +25°C° 0 mm 2 mps 713 mmHg 57%
11:00 +27°C° 0 mm 2 mps 713 mmHg 50%
12:00 +27°C° 0.1 mm 2 mps 713 mmHg 48%
13:00 +28°C° 0.1 mm 3 mps 712 mmHg 46%
14:00 +29°C° 0.1 mm 3 mps 712 mmHg 44%
15:00 +29°C° 0 mm 3 mps 712 mmHg 44%
16:00 +28°C° 0 mm 3 mps 712 mmHg 45%
17:00 +28°C° 0 mm 3 mps 712 mmHg 45%
18:00 +26°C° 0 mm 3 mps 711 mmHg 50%
19:00 +24°C° 0 mm 2 mps 711 mmHg 55%
20:00 +22°C° 0 mm 1 mps 711 mmHg 60%
21:00 +22°C° 0 mm 1 mps 712 mmHg 61%
22:00 +21°C° 0 mm 1 mps 712 mmHg 62%
23:00 +19°C° 0 mm 2 mps 712 mmHg 63%
Show more